Location: Wald
(31.7579°N, 86.6655°W)
Time: 19:33:41
(UTC+00:00)

Cosmos 2346 Rocket - Pass Details

Date: 14 July 2020
Orbit: 936 x 981 km, 82.9° (Epoch: 13 August)

Event Time Altitude Azimuth Distance (km) Brightness Sun altitude
Rises 07:47:26 0° 352° (N) 3,640 8.2 -30.0°
Reaches altitude 10° 07:49:57 10° 352° (N) 2,684 7.4 -29.7°
Enters shadow 07:55:55 80° 292° (WNW) 964 4.3 -29.0°
